Location: Alpine
(43.1636°N, 111.0180°W)
Time: 04:12:35
(UTC+00:00)

Tiros 1 despin weight - Pass Details

Date: 27 May 2022
Orbit: 591 x 639 km, 48.2° (Epoch: 30 June)

Event Time Altitude Azimuth Distance (km) Brightness Sun altitude
Rises 03:17:44 0° 271° (W) 2,863 ? -4.7°
Reaches altitude 10° 03:20:08 10° 277° (W) 1,951 ? -5.1°
Maximum altitude 03:24:27 46° 352° (N) 810 ? -5.7°
Drops below altitude 10° 03:28:43 10° 66° (ENE) 1,930 ? -6.3°
Sets 03:31:04 0° 73° (ENE) 2,828 ? -6.7°
